Location: Bydgoszcz
(53.1235°N, 18.0084°E)
Time: 20:00:32
(UTC+02:00)

ISS - Pass Details

Date: 21 April 2026
Orbit: 414 x 424 km, 51.6° (Epoch: 12 May)

Event Time Altitude Azimuth Distance (km) Brightness Sun altitude
Exits shadow 04:42:26 - 200° (SSW) 1,817 -1.0 -8.0°
Reaches altitude 10° 04:43:28 10° 190° (S) 1,496 -1.3 -7.9°
Maximum altitude 04:45:49 18° 145° (SE) 1,112 -1.6 -7.6°
Drops below altitude 10° 04:48:11 10° 100° (E) 1,507 -0.2 -7.3°
Sets 04:50:44 0° 81° (E) 2,377 1.6 -6.9°
